TFV009 GMAD-EBCI

Flight info

Callsign TFV009
Flight time N/A
Altitude 36000
Route MOGBA UH300 ESS UN871 ADUBI N871 VJF N10 HIJ Z230 TLD N858 SIE/N0457F380 N858 DGO L176 LUSEM/N0449F340 DCT LULUT DCT ADABI DCT BOKNO UN858 VANAD UN874 BAMES UT191 PODEM UN873 BAZOS DCT BELDI DCT VEKIN Z173 ARVOL
Aircraft B738/M-SDE2E3FGHIRWXY/LB1

Departure

Time 2026-05-04 16:18
Airport Al Massira Airport (GMAD)

Arrival

Time N/A
Airport Brussels South Charleroi Airport (EBCI)
Time Latitude Longitude Altitude Speed Heading
2026-05-04 16:18 30.25441 -9.64642 8846 ft 273 kts 258°
2026-05-04 16:18 30.24972 -9.66776 9638 ft 274 kts 258°
2026-05-04 16:19 30.26442 -9.72952 10626 ft 323 kts 326°
2026-05-04 16:19 30.30725 -9.75293 11327 ft 350 kts 332°
2026-05-04 16:20 30.37800 -9.77600 13151 ft 370 kts 359°
2026-05-04 16:20 30.43007 -9.77115 14239 ft 380 kts
2026-05-04 16:21 30.51027 -9.76351 15774 ft 391 kts
2026-05-04 16:22 30.56508 -9.75883 16774 ft 399 kts 360°
2026-05-04 16:22 30.64923 -9.75164 18270 ft 410 kts 360°
2026-05-04 16:23 30.73533 -9.74419 19629 ft 417 kts 359°
2026-05-04 16:24 30.85253 -9.73404 21404 ft 427 kts 359°
2026-05-04 16:25 30.91212 -9.72886 22264 ft 432 kts 359°
2026-05-04 16:26 31.03316 -9.71837 23816 ft 442 kts 359°
2026-05-04 16:26 31.12590 -9.71051 24772 ft 449 kts 358°
2026-05-04 16:27 31.18851 -9.70521 25400 ft 454 kts 358°
2026-05-04 16:28 31.28361 -9.69706 26323 ft 460 kts 358°
2026-05-04 16:28 31.37998 -9.68701 27144 ft 473 kts
2026-05-04 16:29 31.50114 -9.61695 28243 ft 497 kts 27°
2026-05-04 16:30 31.58958 -9.55142 28946 ft 504 kts 27°
2026-05-04 16:31 31.64940 -9.50787 29476 ft 507 kts 26°
2026-05-04 16:31 31.73909 -9.44295 30553 ft 502 kts 26°
2026-05-04 16:32 31.82756 -9.37877 31468 ft 500 kts 26°
2026-05-04 16:33 31.88658 -9.33591 31886 ft 502 kts 26°
2026-05-04 16:33 31.94586 -9.29272 32436 ft 501 kts 25°
2026-05-04 16:34 32.00517 -9.24946 32860 ft 502 kts 25°
2026-05-04 16:34 32.03478 -9.22782 33265 ft 499 kts 26°
2026-05-04 16:35 32.12299 -9.16330 33908 ft 500 kts 25°
2026-05-04 16:35 32.21163 -9.09832 34533 ft 499 kts 25°
2026-05-04 16:36 32.24114 -9.07665 34707 ft 499 kts 25°
2026-05-04 16:36 32.30015 -9.03327 35067 ft 500 kts 25°
2026-05-04 16:37 32.35888 -8.99001 35566 ft 496 kts 25°
2026-05-04 16:37 32.38813 -8.96845 35717 ft 496 kts 25°
2026-05-04 16:37 32.44689 -8.92512 35988 ft 497 kts 25°
2026-05-04 16:38 32.50581 -8.88160 36035 ft 502 kts 25°
2026-05-04 16:39 32.65536 -8.77077 36067 ft 510 kts 26°
2026-05-04 16:40 32.77573 -8.68120 36057 ft 510 kts 26°
2026-05-04 16:41 32.92577 -8.56918 36071 ft 509 kts 26°
2026-05-04 16:43 33.07476 -8.45749 36069 ft 506 kts 26°
2026-05-04 16:43 33.16409 -8.39031 36073 ft 505 kts 26°
2026-05-04 16:45 33.34237 -8.25614 36078 ft 505 kts 26°
2026-05-04 16:46 33.49090 -8.14388 36088 ft 505 kts 26°
2026-05-04 16:47 33.60927 -8.05408 36081 ft 505 kts 26°
2026-05-04 16:48 33.72798 -7.96372 36088 ft 506 kts 26°
2026-05-04 16:49 33.84687 -7.87292 36083 ft 506 kts 26°
2026-05-04 16:50 33.96575 -7.78182 36081 ft 506 kts 26°
2026-05-04 16:51 34.05502 -7.71333 36090 ft 508 kts 26°
2026-05-04 16:52 34.17419 -7.62154 36080 ft 508 kts 26°
2026-05-04 16:53 34.26356 -7.55230 36101 ft 509 kts 26°
2026-05-04 16:54 34.38308 -7.45960 36084 ft 511 kts 26°
2026-05-04 16:55 34.56258 -7.31982 36084 ft 512 kts 26°
2026-05-04 16:56 34.71218 -7.20276 36083 ft 512 kts 26°
2026-05-04 16:57 34.80189 -7.13231 36101 ft 512 kts 26°
2026-05-04 16:58 34.92149 -7.03811 36071 ft 512 kts 26°
2026-05-04 17:00 35.10014 -6.89678 36079 ft 511 kts 26°
2026-05-04 17:01 35.24909 -6.77836 36078 ft 511 kts 26°
2026-05-04 17:02 35.36820 -6.68351 36076 ft 510 kts 25°
2026-05-04 17:03 35.45819 -6.61442 36074 ft 508 kts 24°
2026-05-04 17:03 35.54773 -6.54559 36073 ft 508 kts 25°
2026-05-04 17:04 35.66732 -6.45292 36069 ft 508 kts 25°
2026-05-04 17:05 35.78674 -6.36008 36068 ft 508 kts 25°
2026-05-04 17:06 35.87586 -6.28898 36063 ft 511 kts 27°
2026-05-04 17:07 35.94349 -6.23035 36051 ft 512 kts 28°
2026-05-04 17:07 36.01159 -6.17147 36055 ft 511 kts 27°
2026-05-04 17:08 36.09930 -6.09626 36097 ft 511 kts 28°
2026-05-04 17:09 36.15774 -6.04605 36059 ft 511 kts 28°
2026-05-04 17:09 36.21672 -5.99739 36036 ft 504 kts 20°
2026-05-04 17:10 36.28084 -5.96761 36039 ft 483 kts
2026-05-04 17:10 36.37937 -5.95030 36064 ft 476 kts 359°
2026-05-04 17:11 36.44507 -5.93926 36051 ft 476 kts 359°
2026-05-04 17:12 36.54356 -5.92186 36035 ft 476 kts 359°
2026-05-04 17:13 36.70743 -5.89247 36049 ft 476 kts 359°
2026-05-04 17:14 36.83833 -5.86896 36051 ft 475 kts 359°
2026-05-04 17:15 36.93645 -5.85128 36050 ft 475 kts 360°
2026-05-04 17:16 37.06744 -5.82761 36026 ft 475 kts 360°
2026-05-04 17:17 37.19795 -5.80394 36013 ft 475 kts 360°
2026-05-04 17:18 37.32881 -5.78011 35997 ft 475 kts 360°
2026-05-04 17:19 37.45876 -5.74566 35994 ft 493 kts 18°
2026-05-04 17:20 37.58241 -5.66923 36033 ft 496 kts 19°
2026-05-04 17:20 37.67545 -5.61216 35994 ft 496 kts 19°
2026-05-04 17:21 37.79982 -5.53656 36001 ft 496 kts 19°
2026-05-04 17:22 37.86202 -5.49862 36004 ft 496 kts 19°
2026-05-04 17:23 37.98621 -5.42260 35993 ft 496 kts 19°
2026-05-04 17:24 38.07929 -5.36543 36027 ft 495 kts 19°
2026-05-04 17:25 38.20348 -5.28892 35999 ft 496 kts 19°
2026-05-04 17:26 38.32745 -5.21223 35989 ft 497 kts 19°
2026-05-04 17:27 38.48313 -5.11552 35984 ft 498 kts 19°
2026-05-04 17:28 38.60995 -5.04680 35988 ft 494 kts 14°
2026-05-04 17:29 38.80156 -4.94957 35991 ft 494 kts 15°
2026-05-04 17:31 38.96106 -4.86718 35980 ft 495 kts 15°
2026-05-04 17:32 39.12035 -4.78444 35978 ft 495 kts 15°
2026-05-04 17:33 39.24791 -4.71793 35986 ft 494 kts 15°
2026-05-04 17:34 39.37539 -4.65143 35969 ft 494 kts 15°
2026-05-04 17:35 39.53471 -4.56788 35961 ft 494 kts 16°
2026-05-04 17:36 39.59842 -4.53436 35962 ft 495 kts 16°
2026-05-04 17:36 39.66226 -4.50070 35951 ft 495 kts 16°
2026-05-04 17:37 39.72565 -4.46720 35979 ft 495 kts 16°
2026-05-04 17:37 39.78944 -4.43344 35956 ft 495 kts 16°
2026-05-04 17:38 39.85328 -4.39932 35946 ft 496 kts 16°
2026-05-04 17:38 39.91702 -4.36500 35943 ft 496 kts 16°
2026-05-04 17:39 40.01255 -4.31215 35944 ft 499 kts 19°
2026-05-04 17:39 40.07540 -4.27342 35941 ft 500 kts 20°
2026-05-04 17:40 40.13824 -4.23431 35935 ft 500 kts 19°
2026-05-04 17:40 40.20115 -4.19559 35953 ft 500 kts 19°
2026-05-04 17:41 40.26421 -4.15699 35950 ft 500 kts 19°
2026-05-04 17:41 40.32725 -4.11838 35949 ft 500 kts 19°
2026-05-04 17:42 40.39031 -4.07964 35947 ft 500 kts 19°
2026-05-04 17:42 40.45335 -4.04082 35962 ft 501 kts 20°
2026-05-04 17:43 40.51644 -4.00188 35965 ft 501 kts 20°
2026-05-04 17:43 40.57951 -3.96287 35977 ft 500 kts 20°
2026-05-04 17:44 40.64247 -3.92385 36000 ft 501 kts 20°
2026-05-04 17:44 40.70545 -3.88474 36004 ft 500 kts 20°
2026-05-04 17:45 40.76841 -3.84556 35983 ft 500 kts 20°
2026-05-04 17:45 40.83123 -3.80632 35953 ft 499 kts 20°
2026-05-04 17:46 40.89311 -3.76769 35974 ft 500 kts 20°
2026-05-04 17:46 40.95538 -3.72872 35975 ft 501 kts 20°
2026-05-04 17:47 41.01828 -3.68923 35972 ft 501 kts 20°
2026-05-04 17:47 41.08126 -3.64962 36004 ft 501 kts 21°
2026-05-04 17:48 41.14437 -3.60984 35975 ft 502 kts 21°
2026-05-04 17:48 41.20822 -3.57293 35983 ft 500 kts 17°
2026-05-04 17:49 41.27273 -3.53857 35974 ft 500 kts 17°
2026-05-04 17:49 41.33722 -3.50380 35983 ft 500 kts 18°
2026-05-04 17:50 41.40153 -3.46850 35974 ft 500 kts 18°
2026-05-04 17:50 41.46584 -3.43305 35960 ft 500 kts 18°
2026-05-04 17:51 41.53007 -3.39765 36004 ft 499 kts 18°
2026-05-04 17:51 41.59395 -3.36243 35984 ft 500 kts 18°
2026-05-04 17:52 41.65863 -3.32669 35978 ft 500 kts 18°
2026-05-04 17:52 41.72251 -3.29130 35978 ft 500 kts 18°
2026-05-04 17:53 41.78676 -3.25562 35972 ft 500 kts 18°
2026-05-04 17:53 41.85108 -3.21983 35972 ft 500 kts 18°
2026-05-04 17:54 41.91536 -3.18398 35977 ft 501 kts 18°
2026-05-04 17:54 41.97968 -3.14803 35987 ft 501 kts 19°
2026-05-04 17:55 42.04410 -3.11195 35989 ft 501 kts 19°
2026-05-04 17:55 42.09763 -3.08190 35983 ft 501 kts 19°
2026-05-04 17:56 42.16199 -3.04570 35980 ft 501 kts 19°
2026-05-04 17:56 42.22620 -3.00950 35984 ft 500 kts 19°
2026-05-04 17:57 42.28633 -2.96165 35997 ft 506 kts 36°
2026-05-04 17:57 42.34091 -2.90160 35998 ft 506 kts 38°
2026-05-04 17:58 42.39529 -2.84120 36017 ft 505 kts 38°
2026-05-04 17:58 42.44991 -2.78146 36002 ft 504 kts 37°
2026-05-04 17:59 42.50455 -2.72212 35999 ft 503 kts 37°
2026-05-04 18:00 42.58639 -2.63310 36019 ft 503 kts 38°
2026-05-04 18:00 42.64096 -2.57352 36014 ft 504 kts 38°
2026-05-04 18:01 42.69557 -2.51372 36017 ft 505 kts 38°
2026-05-04 18:01 42.75023 -2.45373 36013 ft 505 kts 38°
2026-05-04 18:02 42.83218 -2.36353 36018 ft 505 kts 38°
2026-05-04 18:02 42.88685 -2.30318 36023 ft 506 kts 38°
2026-05-04 18:03 42.94151 -2.24270 36007 ft 506 kts 38°
2026-05-04 18:03 42.99626 -2.18197 36013 ft 507 kts 38°
2026-05-04 18:04 43.05098 -2.12113 36041 ft 507 kts 38°
2026-05-04 18:05 43.13294 -2.02973 36031 ft 507 kts 38°
2026-05-04 18:05 43.18718 -1.96907 36025 ft 507 kts 38°
2026-05-04 18:06 43.26899 -1.87729 36019 ft 506 kts 39°
2026-05-04 18:06 43.32439 -1.81785 36009 ft 505 kts 31°
2026-05-04 18:07 43.38585 -1.77188 36020 ft 503 kts 28°
2026-05-04 18:07 43.44537 -1.72097 36036 ft 504 kts 33°
2026-05-04 18:08 43.50336 -1.66669 36025 ft 504 kts 33°
2026-05-04 18:08 43.56155 -1.61266 36023 ft 505 kts 33°
2026-05-04 18:09 43.67876 -1.50592 36004 ft 504 kts 33°
2026-05-04 18:10 43.73725 -1.45265 36008 ft 503 kts 33°
2026-05-04 18:10 43.79568 -1.39926 36008 ft 503 kts 33°
2026-05-04 18:11 43.85408 -1.34573 36008 ft 503 kts 33°
2026-05-04 18:11 43.91249 -1.29206 35998 ft 504 kts 33°
2026-05-04 18:12 43.97083 -1.23834 35997 ft 503 kts 33°
2026-05-04 18:12 44.02919 -1.18447 36009 ft 503 kts 33°
2026-05-04 18:13 44.08743 -1.13057 35974 ft 503 kts 34°
2026-05-04 18:14 44.17467 -1.04961 35979 ft 502 kts 34°
2026-05-04 18:14 44.23274 -0.99554 35988 ft 502 kts 34°
2026-05-04 18:15 44.34839 -0.88748 35978 ft 502 kts 34°
2026-05-04 18:16 44.40692 -0.83421 35982 ft 502 kts 28°
2026-05-04 18:16 44.47053 -0.79367 35977 ft 503 kts 22°
2026-05-04 18:17 44.56732 -0.73689 35960 ft 503 kts 23°
2026-05-04 18:18 44.66416 -0.67815 35971 ft 504 kts 24°
2026-05-04 18:18 44.72795 -0.63886 35966 ft 504 kts 24°
2026-05-04 18:19 44.82425 -0.57937 35970 ft 504 kts 24°
2026-05-04 18:19 44.88845 -0.53964 35969 ft 505 kts 24°
2026-05-04 18:20 44.95274 -0.49977 35968 ft 505 kts 24°
2026-05-04 18:20 45.01711 -0.45975 35964 ft 505 kts 24°
2026-05-04 18:21 45.08140 -0.41968 35953 ft 505 kts 24°
2026-05-04 18:21 45.14563 -0.37955 35953 ft 504 kts 24°
2026-05-04 18:22 45.20976 -0.33938 35967 ft 504 kts 24°
2026-05-04 18:22 45.27364 -0.29927 35948 ft 504 kts 24°
2026-05-04 18:23 45.33772 -0.25893 35952 ft 504 kts 24°
2026-05-04 18:23 45.40172 -0.21854 35941 ft 503 kts 24°
2026-05-04 18:24 45.46578 -0.17802 35937 ft 503 kts 24°
2026-05-04 18:24 45.52946 -0.13763 35943 ft 503 kts 24°
2026-05-04 18:25 45.59335 -0.09702 35948 ft 503 kts 25°
2026-05-04 18:25 45.65715 -0.05635 35942 ft 502 kts 25°
2026-05-04 18:26 45.72092 -0.01560 35937 ft 502 kts 25°
2026-05-04 18:26 45.78461 0.02520 35937 ft 502 kts 25°
2026-05-04 18:27 45.84839 0.06615 35936 ft 502 kts 25°
2026-05-04 18:27 45.91224 0.10726 35940 ft 503 kts 25°
2026-05-04 18:28 45.97607 0.14846 35951 ft 504 kts 25°
2026-05-04 18:28 46.04001 0.18983 35947 ft 504 kts 25°
2026-05-04 18:29 46.10398 0.23134 35939 ft 504 kts 25°
2026-05-04 18:29 46.16790 0.27291 35938 ft 504 kts 25°
2026-05-04 18:30 46.26386 0.33553 35944 ft 504 kts 25°
2026-05-04 18:31 46.32777 0.37737 35945 ft 504 kts 25°
2026-05-04 18:31 46.39168 0.41932 35932 ft 504 kts 25°
2026-05-04 18:32 46.45518 0.46110 35913 ft 504 kts 25°
2026-05-04 18:32 46.51946 0.50351 35919 ft 504 kts 25°
2026-05-04 18:33 46.58471 0.54079 35914 ft 505 kts 13°
2026-05-04 18:33 46.65272 0.56277 35923 ft 504 kts 11°
2026-05-04 18:34 46.72137 0.58405 35929 ft 505 kts 12°
2026-05-04 18:34 46.78995 0.60632 35926 ft 505 kts 12°
2026-05-04 18:35 46.85843 0.62909 35932 ft 505 kts 12°
2026-05-04 18:35 46.92691 0.65193 35940 ft 505 kts 12°
2026-05-04 18:36 46.99538 0.67475 35933 ft 505 kts 12°
2026-05-04 18:36 47.06419 0.69563 35927 ft 504 kts
2026-05-04 18:37 47.13406 0.70323 35929 ft 503 kts
2026-05-04 18:37 47.20398 0.70877 35940 ft 503 kts
2026-05-04 18:38 47.27379 0.71548 35943 ft 503 kts
2026-05-04 18:38 47.34246 0.73433 35940 ft 503 kts 19°
2026-05-04 18:39 47.40787 0.76942 35942 ft 503 kts 20°
2026-05-04 18:39 47.47352 0.80535 35937 ft 504 kts 20°
2026-05-04 18:40 47.53943 0.84061 35915 ft 504 kts 19°
2026-05-04 18:40 47.60543 0.87547 35937 ft 504 kts 19°
2026-05-04 18:41 47.67045 0.91387 35925 ft 504 kts 28°
2026-05-04 18:41 47.73139 0.96512 35919 ft 504 kts 31°
2026-05-04 18:42 47.79179 1.01800 35921 ft 504 kts 31°
2026-05-04 18:42 47.84259 1.06182 35922 ft 504 kts 30°
2026-05-04 18:43 47.90344 1.11358 35914 ft 504 kts 30°
2026-05-04 18:43 47.96398 1.16487 35917 ft 504 kts 30°
2026-05-04 18:44 48.02489 1.21662 35917 ft 503 kts 30°
2026-05-04 18:44 48.08566 1.26845 35912 ft 503 kts 30°
2026-05-04 18:45 48.14640 1.32043 35908 ft 503 kts 30°
2026-05-04 18:45 48.20709 1.37251 35921 ft 503 kts 30°
2026-05-04 18:46 48.26778 1.42474 35921 ft 503 kts 30°
2026-05-04 18:46 48.32838 1.47702 35920 ft 502 kts 30°
2026-05-04 18:47 48.38889 1.52937 35927 ft 501 kts 30°
2026-05-04 18:47 48.44931 1.58180 35936 ft 501 kts 30°
2026-05-04 18:48 48.50957 1.63422 35923 ft 500 kts 30°
2026-05-04 18:48 48.56968 1.68667 35929 ft 499 kts 30°
2026-05-04 18:49 48.62965 1.73913 35913 ft 498 kts 30°
2026-05-04 18:49 48.68950 1.79164 35937 ft 497 kts 30°
2026-05-04 18:50 48.74927 1.84422 35935 ft 496 kts 30°
2026-05-04 18:50 48.80884 1.89677 35940 ft 495 kts 30°
2026-05-04 18:51 48.86836 1.94942 35939 ft 495 kts 30°
2026-05-04 18:51 48.92745 2.00184 35938 ft 495 kts 30°
2026-05-04 18:52 48.98694 2.05476 35941 ft 495 kts 30°
2026-05-04 18:52 49.04638 2.10778 35938 ft 495 kts 30°
2026-05-04 18:53 49.10581 2.16094 35946 ft 494 kts 30°
2026-05-04 18:53 49.16503 2.21407 35922 ft 493 kts 30°
2026-05-04 18:54 49.22457 2.26763 35943 ft 493 kts 30°
2026-05-04 18:54 49.28332 2.32063 35954 ft 493 kts 30°
2026-05-04 18:55 49.34088 2.37269 35954 ft 493 kts 30°
2026-05-04 18:55 49.42931 2.45297 35893 ft 492 kts 30°
2026-05-04 18:56 49.45887 2.47988 35377 ft 492 kts 30°
2026-05-04 18:56 49.48826 2.50667 34662 ft 492 kts 30°
2026-05-04 18:56 49.51772 2.53356 34020 ft 492 kts 31°
2026-05-04 18:56 49.54708 2.56040 33454 ft 487 kts 31°
2026-05-04 18:57 49.57606 2.58694 32924 ft 483 kts 31°
2026-05-04 18:57 49.60474 2.61323 32466 ft 477 kts 31°
2026-05-04 18:57 49.63309 2.63926 31995 ft 472 kts 31°
2026-05-04 18:57 49.66111 2.66501 31545 ft 466 kts 31°
2026-05-04 18:58 49.68884 2.69055 31092 ft 462 kts 31°
2026-05-04 18:58 49.71627 2.71583 30638 ft 457 kts 31°
2026-05-04 18:58 49.74344 2.74090 30212 ft 453 kts 31°
2026-05-04 18:58 49.77035 2.76577 29739 ft 448 kts 31°
2026-05-04 18:59 49.79695 2.79039 29271 ft 442 kts 31°
2026-05-04 18:59 49.82320 2.81471 28816 ft 437 kts 31°
2026-05-04 18:59 49.84907 2.83872 28374 ft 431 kts 31°
2026-05-04 18:59 49.87466 2.86248 27938 ft 426 kts 31°
2026-05-04 19:00 49.89994 2.88600 27505 ft 422 kts 31°
2026-05-04 19:00 49.92501 2.90935 27056 ft 418 kts 31°
2026-05-04 19:00 49.94977 2.93243 26651 ft 413 kts 31°
2026-05-04 19:00 49.97426 2.95529 26217 ft 409 kts 31°
2026-05-04 19:01 49.99857 2.97800 25793 ft 406 kts 31°
2026-05-04 19:01 50.02262 3.00051 25378 ft 402 kts 31°
2026-05-04 19:01 50.04651 3.02289 24965 ft 399 kts 31°
2026-05-04 19:01 50.07017 3.04508 24550 ft 396 kts 31°
2026-05-04 19:02 50.09367 3.06715 24152 ft 393 kts 31°
2026-05-04 19:02 50.11696 3.08904 23751 ft 390 kts 31°
2026-05-04 19:02 50.14012 3.11084 23320 ft 388 kts 31°
2026-05-04 19:02 50.16314 3.13253 22850 ft 385 kts 31°
2026-05-04 19:03 50.18592 3.15402 22452 ft 381 kts 31°
2026-05-04 19:03 50.20847 3.17532 22037 ft 377 kts 32°
2026-05-04 19:03 50.23082 3.19645 21645 ft 374 kts 32°
2026-05-04 19:03 50.25284 3.21729 21255 ft 371 kts 31°
2026-05-04 19:04 50.27490 3.23820 20880 ft 367 kts 31°
2026-05-04 19:04 50.29663 3.25880 20487 ft 364 kts 31°
2026-05-04 19:04 50.31818 3.27927 20104 ft 361 kts 32°
2026-05-04 19:04 50.33957 3.29961 19722 ft 358 kts 32°
2026-05-04 19:05 50.36081 3.31982 19348 ft 356 kts 32°
2026-05-04 19:05 50.38189 3.33990 18978 ft 353 kts 32°
2026-05-04 19:05 50.40283 3.35987 18608 ft 351 kts 32°
2026-05-04 19:05 50.42362 3.37972 18231 ft 349 kts 32°
2026-05-04 19:06 50.44431 3.39950 17810 ft 347 kts 32°
2026-05-04 19:06 50.46481 3.41910 17433 ft 344 kts 32°
2026-05-04 19:06 50.48514 3.43857 17045 ft 341 kts 32°
2026-05-04 19:06 50.50523 3.45798 16643 ft 338 kts 34°
2026-05-04 19:07 50.52185 3.48417 15941 ft 345 kts 60°
2026-05-04 19:07 50.52911 3.52006 15269 ft 351 kts 85°
2026-05-04 19:07 50.52824 3.55857 14620 ft 356 kts 96°
2026-05-04 19:07 50.52514 3.59740 13951 ft 361 kts 97°
2026-05-04 19:08 50.52167 3.63671 13224 ft 365 kts 97°
2026-05-04 19:08 50.51816 3.67633 12504 ft 368 kts 97°
2026-05-04 19:08 50.51470 3.71625 11789 ft 370 kts 96°
2026-05-04 19:08 50.51130 3.75636 11084 ft 371 kts 96°
2026-05-04 19:09 50.50795 3.79670 10403 ft 372 kts 96°
2026-05-04 19:09 50.50463 3.83705 9725 ft 373 kts 96°
2026-05-04 19:09 50.50133 3.87743 8980 ft 373 kts 96°
2026-05-04 19:09 50.49802 3.91776 8265 ft 372 kts 96°
2026-05-04 19:10 50.49471 3.95801 7561 ft 371 kts 96°
2026-05-04 19:10 50.49140 3.99816 6868 ft 370 kts 96°
2026-05-04 19:10 50.48809 4.03809 6214 ft 368 kts 97°
2026-05-04 19:10 50.48485 4.07705 6060 ft 351 kts 96°
2026-05-04 19:11 50.48173 4.11417 5948 ft 335 kts 96°
2026-05-04 19:11 50.47875 4.14962 5840 ft 321 kts 96°
2026-05-04 19:11 50.47589 4.18357 5740 ft 307 kts 96°
2026-05-04 19:11 50.47314 4.21611 5653 ft 295 kts 96°
2026-05-04 19:12 50.47049 4.24741 5560 ft 283 kts 96°
2026-05-04 19:12 50.46547 4.30652 5295 ft 267 kts 96°
2026-05-04 19:12 50.46306 4.33495 5004 ft 266 kts 96°
2026-05-04 19:13 50.46058 4.36404 4685 ft 266 kts 96°
2026-05-04 19:13 50.45811 4.39268 4384 ft 264 kts 96°
2026-05-04 19:13 50.45569 4.42081 4093 ft 263 kts 96°
2026-05-04 19:13 50.45424 4.44929 3789 ft 261 kts 84°
2026-05-04 19:14 50.45722 4.47723 3506 ft 259 kts 77°
2026-05-04 19:14 50.46083 4.50531 3193 ft 259 kts 77°
2026-05-04 19:14 50.46430 4.53291 3015 ft 256 kts 78°
2026-05-04 19:14 50.46757 4.55968 2985 ft 244 kts 78°
2026-05-04 19:15 50.47059 4.58486 2978 ft 232 kts 78°
2026-05-04 19:15 50.47346 4.60905 2977 ft 219 kts 78°
2026-05-04 19:15 50.47615 4.63193 2982 ft 209 kts 78°
2026-05-04 19:15 50.47876 4.65421 2989 ft 207 kts 78°
2026-05-04 19:16 50.48133 4.67638 2993 ft 206 kts 79°
2026-05-04 19:16 50.48386 4.69828 2979 ft 200 kts 78°
2026-05-04 19:16 50.48627 4.71919 2976 ft 190 kts 78°
2026-05-04 19:16 50.48864 4.73937 2980 ft 187 kts 75°
2026-05-04 19:17 50.49442 4.75717 2997 ft 185 kts 44°
2026-05-04 19:17 50.50524 4.76783 3001 ft 186 kts 15°
2026-05-04 19:17 50.51813 4.76873 3003 ft 189 kts 346°
2026-05-04 19:17 50.52981 4.75939 3007 ft 192 kts 317°
2026-05-04 19:18 50.53625 4.74138 2974 ft 194 kts 274°
2026-05-04 19:18 50.53409 4.72071 3024 ft 193 kts 256°
2026-05-04 19:18 50.53022 4.70048 3010 ft 193 kts 254°
2026-05-04 19:18 50.52597 4.68062 3010 ft 191 kts 249°
2026-05-04 19:19 50.52071 4.66154 3009 ft 190 kts 246°
2026-05-04 19:19 50.51517 4.64268 2966 ft 192 kts 246°
2026-05-04 19:19 50.50948 4.62326 2716 ft 197 kts 246°
2026-05-04 19:19 50.50388 4.60406 2452 ft 187 kts 246°
2026-05-04 19:20 50.49871 4.58636 2230 ft 170 kts 247°
2026-05-04 19:20 50.49401 4.57022 2027 ft 152 kts 247°
2026-05-04 19:20 50.48968 4.55535 1808 ft 147 kts 247°
2026-05-04 19:20 50.48546 4.54083 1614 ft 146 kts 247°
2026-05-04 19:21 50.48125 4.52635 1425 ft 146 kts 246°